Regional Weather Roundup
Issued by NWS

Home | Current Version | Previous Version | Text Only | Print | Product List | Glossary Off
Versions: 1 2 3 4 5 6 7 8 9 10 11 12 13 14 15 16 17 18 19 20 21 22 23 24 25 26 27 28 29 30 31 32 33 34 35 36 37 38 39 40 41 42 43 44 45 46 47 48 49 50

000
ASUS45 KTFX 020410
RWRMT
MONTANA REGIONAL WEATHER ROUNDUP
NATIONAL WEATHER SERVICE GREAT FALLS MT
1000 PM MDT WED JUL 01 2015

NOTE: "FAIR" INDICATES FEW OR NO CLOUDS BELOW 12000 FEET WITH NO
SIGNIFICANT WEATHER AND/OR OBSTRUCTIONS TO VISIBILITY.

MTZ001>007-043-020500-
WEST OF THE DIVIDE

CITY           SKY/WX    TMP DP  RH WIND       PRES   REMARKS
KALISPELL      CLEAR     76  53  44 NE14      30.02R
MISSOULA       CLOUDY    82  43  25 NW3       30.01R
BUTTE          CLEAR     76  40  27 N8        30.17R
MULLAN PASS    CLEAR     68  39  34 VRB3      30.24R
DEER LODGE       N/A     73  52  46 N10G21    30.19R
EUREKA           N/A     79  52  38 CALM      30.01R
HAMILTON         N/A     77  50  38 NE3       30.04R
PLAINS           N/A     80  48  32 CALM      29.99R
RONAN            N/A     74  55  51 N3        30.06R
THOMPSON FALLS   N/A     81  44  26 W5        30.02R
$$

MTZ008-052>055-020500-
SOUTHWEST MONTANA

CITY           SKY/WX    TMP DP  RH WIND       PRES   REMARKS
BOZEMAN        CLEAR     70  49  47 VRB3      30.10R
DILLON         CLEAR     70  43  37 E9        30.11R
W YELLOWSTONE  CLEAR     66  45  45 CALM      30.22R
THREE FORKS      N/A     80  48  32 NE6       30.08R
$$

MTZ009-010-012-014-046-048-049-054-020500-
EAST SLOPES AND CENTRAL MONTANA

CITY           SKY/WX    TMP DP  RH WIND       PRES   REMARKS
CUT BANK       PTCLDY    65  51  60 N10       30.19R
GREAT FALLS    PTCLDY    71  52  50 N9        30.15R
MALMSTROM AFB  MOCLDY    72  52  49 N10       30.14R
HELENA         CLEAR     75  52  44 NW10      30.11R
CONRAD           N/A     65  58  78 CALM      30.19R
$$

MTZ011-013-016-021-045-047-050-051-020500-
NORTH CENTRAL MONTANA

CITY           SKY/WX    TMP DP  RH WIND       PRES   REMARKS
HAVRE          CLEAR     70  53  54 NW5       30.08R
LEWISTOWN      PTCLDY    67  53  61 W5        30.16R
CHINOOK          N/A     68  59  73 CALM      30.08R
FORT BENTON      N/A     72  54  53 N6        30.13R
$$

MTZ017>020-022>027-061-062-020500-
NORTHEAST MONTANA

CITY           SKY/WX    TMP DP  RH WIND       PRES   REMARKS
GLASGOW        PTCLDY    65  51  60 E3        30.04R
JORDAN           N/A     70  55  59 NE14      30.05R
SIDNEY         MOCLDY    66  57  72 W9        30.03R
WOLF POINT     MOCLDY    64  59  83 CALM      30.02R
MALTA            N/A     67  54  63 CALM      30.03R
PLENTYWOOD       N/A     64  55  72 CALM      30.00R
SCOBEY           N/A     58  53  83 S3        30.02R
$$

MTZ028>42-056>058-020500-
SOUTHCENTRAL AND SOUTHEAST MONTANA

CITY           SKY/WX    TMP DP  RH WIND       PRES   REMARKS
BAKER          MOCLDY    66  63  90 CALM      30.04S
BILLINGS       PTCLDY    71  54  54 NE7       30.12R
LIVINGSTON     CLEAR     71  54  54 E20G28    30.15R
MILES CITY     MOCLDY    69  59  70 NE6       30.03R
EKALAKA          N/A     65  58  78 SE2       30.05F
FORSYTH          N/A     68  63  83 CALM      30.04R
LAUREL           N/A     71  52  51 NE2       30.10R
ROUNDUP          N/A     69  57  65 CALM      30.02R
$$

REGIONAL REPORTS...DAKOTAS

CITY           SKY/WX    TMP DP  RH WIND       PRES   REMARKS
WILLISTON      CLOUDY    71  59  65 NW8       30.00R HAZE
MINOT          CLOUDY    68  64  87 CALM      29.96R
DICKINSON      LGT RAIN  66  62  87 W5        30.00R FOG
BEACH          LGT RAIN  55  55 100 S6        30.04S
CROSBY         FAIR      64  64 100 SW3       29.99R FOG
BISMARCK       MOCLDY    69  65  86 N3        29.97R
GRAND FORKS    PTCLDY    66  62  87 S7        29.95R
FARGO          FAIR      65  56  72 S8        29.98R
BUFFALO SD       N/A     67  64  90 SE9       29.96F
RAPID CITY     PTCLDY    68  64  87 E8        30.02R
$$

REGIONAL REPORTS...WYOMING/IDAHO/WASHINGTON

CITY           SKY/WX    TMP DP  RH WIND       PRES   REMARKS
GILLETTE       MOCLDY    63  53  70 N15G24    30.13R
SHERIDAN       PTCLDY    68  56  65 SW7       30.15R
BUFFALO WY     CLOUDY    69  60  73 NE14      30.17R
CODY           CLEAR     73  48  40 NW10G20   30.15R
YELLOWSTONE LA   N/A     59  42  53 NW3       30.33R
IDAHO FALLS    CLEAR     81  53  37 SE6       30.02S
SALMON         CLEAR     79  43  27 E5        30.01R
BOISE          PTCLDY    91  40  16 N5        29.90R
SPOKANE        PTCLDY    87  37  17 W5        29.96S
$$

REGIONAL REPORTS...ALBERTA

CITY           SKY/WX    TMP DP  RH WIND       PRES   REMARKS
EDMONTON       CLEAR     68  55  64 W5        30.07R
CALGARY        MOCLDY    68  54  60 N3        30.18R
LETHBRIDGE     PTCLDY    68  55  64 VRB2      30.16R
MEDICINE HAT   CLEAR     68  55  64 N12       30.09R
WATERTON GATE    N/A     61  54  77 N2          N/A
CARDSTON         N/A     64  57  77 W1          N/A
MILK RIVER       N/A     61  54  77 NW7         N/A
ONEFOUR          N/A     66  54  63 NW13        N/A
$$

REGIONAL REPORTS...SASKATCHEWAN

CITY           SKY/WX    TMP DP  RH WIND       PRES   REMARKS
SWIFT CURRENT  CLEAR     61  57  88 W8        30.03R
REGINA         MOCLDY    66  63  88 N3        29.98R
SASKATOON      MOCLDY    66  61  82 NW3       29.99R
CYPRESS HILLS    N/A     61  54  77 NW2         N/A
VAL MARIE        N/A     59  55  88 NW5         N/A
ROCKGLEN         N/A     57  55  94 NW9         N/A
$$



USA.gov is the U.S. government's official web portal to all federal, state and local government web resources and services.